Flag for Mexico Weather past 2 weeks in Guadalajara, Jalisco, Mexico

Now
64 °F

Clear.


Feels Like: 64 °F
Forecast: 60 / 89 °F
Wind: 7 mph from Southwest

Location: Don Miguel / Guadalaj


UV Index: 10 (Very high)

Visibility: 10 mi


Pressure: 30.20 "Hg

Humidity: 49%

Dew point: 45 °F

Location of GuadalajaraLocation

Historic Weather in Guadalajara

°F

Guadalajara temperature yesterday

Maximum temperature yesterday: 86 °F (at 12:50 PM)
Minimum temperature yesterday: 57 °F (at 7:49 AM)
Average temperature yesterday: 73 °F

Past Weeks' High & Low Weather Summary

 TemperatureHumidityPressure
High91 °F (Apr 12, 3:45 PM)88% (Apr 17, 6:54 AM)30.34 "Hg (Apr 17, 6:54 AM)
Low48 °F (Apr 6, 7:49 AM)7% (Apr 8, 11:51 AM)29.62 "Hg (Apr 15, 3:45 PM)
Average72 °F31%30.01 "Hg
* Reported Apr 6 3:47 AM — Apr 21 2:51 AM, Guadalajara, Weather by CustomWeather, © 2014

Note: Actual official high and low records may vary slightly from our data, if they occured in-between our weather recording intervals... More about our weather records

Advertising

Historic Weather Conditions — Data for Previous 24 hours

 ConditionsComfort  
Time TempWeatherWind HumidityBarometerVisibility
2:51 AM
Apr 21
64 °FClear.7 mph49%30.20 "Hg10 mi
1:51 AM66 °FPassing clouds.5 mph46%30.20 "Hg10 mi
12:47 AM66 °FPassing clouds.2 mph46%29.83 "Hg10 mi
10:50 PM
Apr 20
73 °FPassing clouds.10 mph33%30.17 "Hg10 mi
9:49 PM73 °FPartly cloudy.8 mph31%29.82 "Hg10 mi
8:49 PM77 °FBroken clouds.8 mph30%30.14 "Hg10 mi
7:48 PM79 °FCloudy.17 mph28%30.12 "Hg10 mi
5:48 PM86 °FMore clouds than sun.13 mph17%30.09 "Hg10 mi
1:50 PM84 °FHigh level clouds.No wind19%30.18 "Hg10 mi
12:50 PM86 °FPartly sunny.3 mph18%29.82 "Hg10 mi
11:53 AM81 °FPartly sunny.3 mph23%30.23 "Hg10 mi
10:53 AM79 °FPartly sunny.5 mph28%30.24 "Hg10 mi
9:46 AM72 °FPartly sunny.No wind41%29.86 "Hg10 mi
8:52 AM66 °FScattered clouds.3 mph49%30.22 "Hg10 mi
7:49 AM57 °FPassing clouds.No wind63%30.20 "Hg10 mi
6:46 AM59 °FPassing clouds.No wind59%29.86 "Hg10 mi
5:43 AM63 °FPassing clouds.No wind56%30.18 "Hg10 mi
Weather by CustomWeather, © 2014

See weather overview